This demonstration page uses our WeatherBlox Daily Observations layout. Learn more.

40.92945, -100.16068

Hourly Observations for February 24, 2020

Temp ( °F °C ) Dew Point ( °F °C ) Humidity (%) Winds ( mph kmh ) Pressure ( in mb ) Visibility ( mi km ) Precip ( " mm )
12:15 am 00:15 Clear 33 0.7 26 -3.3 75 75 Calm 30.02 1017 10 16.0934 0 0
12:35 am 00:35 Clear 32 0 26 -3.6 77 77 N 3 6 30.02 1016 10 16.0934 0 0
12:55 am 00:55 Clear 31 -0.4 26 -3.5 80 80 N 7 11 30.02 1017 10 16.0934 0 0
1:15 am 01:15 Clear 31 -0.7 26 -3.5 82 82 Calm 30.02 1017 10 16.0934 0 0
1:35 am 01:35 Clear 30 -0.9 26 -3.6 82 82 NNE 3 6 30.02 1016 10 16.0934 0 0
1:55 am 01:55 Clear 30 -1.1 26 -3.5 84 84 Calm 30.02 1017 10 16.0934 0 0
2:15 am 02:15 Clear 29 -1.5 26 -3.6 86 86 Calm 30.02 1017 10 16.0934 0 0
2:35 am 02:35 Clear 30 -1.1 26 -3.2 86 86 NE 6 9 30 1016 10 16.0934 0 0
2:55 am 02:55 Clear 30 -1.1 26 -3.2 86 86 NNE 3 6 30 1016 10 16.0934 0 0
3:15 am 03:15 Clear 29 -1.6 26 -3.5 87 87 NNW 6 9 29.99 1016 10 16.0934 0 0
3:35 am 03:35 Clear 28 -2.5 24 -4.2 88 88 NNE 3 6 29.99 1016 10 16.0934 0 0
3:55 am 03:55 Clear 26 -3.2 24 -4.5 91 91 NNW 7 11 30 1016 10 16.0934 0 0
4:15 am 04:15 Clear 26 -3.2 23 -4.8 89 89 NNW 5 7 29.99 1016 10 16.0934 0 0
4:35 am 04:35 Clear 24 -4.2 22 -5.5 91 91 Calm 30 1016 10 16.0934 0 0
4:55 am 04:55 Clear 24 -4.5 22 -5.6 92 92 NW 6 9 30 1016 10 16.0934 0 0
5:15 am 05:15 Clear 24 -4.3 22 -5.5 91 91 NNW 7 11 30 1016 10 16.0934 0 0
5:35 am 05:35 Clear 24 -4.5 22 -5.7 91 91 Calm 30 1016 10 16.0934 0 0
5:55 am 05:55 Clear 23 -4.9 21 -5.9 93 93 NNW 6 9 30.01 1016 10 16.0934 0 0
6:15 am 06:15 Clear 24 -4.6 22 -5.6 93 93 NW 5 7 30 1016 10 16.0934 0 0
6:35 am 06:35 Clear 24 -4.6 22 -5.7 92 92 NW 6 9 30.01 1016 10 16.0934 0 0
6:55 am 06:55 Clear 23 -5.1 21 -6 93 93 WNW 7 11 30.02 1017 10 16.0934 0 0
7:15 am 07:15 Clear 23 -5.2 21 -6.1 93 93 Calm 30 1016 10 16.0934 0 0
7:35 am 07:35 Sunny 22 -5.8 20 -6.5 95 95 Calm 30.01 1016 10 16.0934 0 0
7:55 am 07:55 Sunny 22 -5.3 21 -6.2 93 93 WNW 6 9 30.01 1016 10 16.0934 0 0
8:15 am 08:15 Sunny 24 -4.2 22 -5.3 92 92 WNW 5 7 30.01 1016 10 16.0934 0 0
8:35 am 08:35 Sunny 25 -3.7 23 -5.2 89 89 Calm 29.99 1016 10 16.0934 0 0
8:55 am 08:55 Sunny 27 -2.6 25 -4.1 90 90 NNW 5 7 29.99 1016 10 16.0934 0 0
9:15 am 09:15 Sunny 30 -0.9 26 -3.4 83 83 NW 7 11 29.99 1015 10 16.0934 0 0
9:35 am 09:35 Sunny 32 0 26 -3.3 79 79 E 8 13 29.96 1014 10 16.0934 0 0
9:55 am 09:55 Sunny 34 1.3 26 -3.6 70 70 E 9 15 29.93 1014 10 16.0934 0 0
10:15 am 10:15 Sunny 36 2 24 -4.2 64 64 E 9 15 29.93 1013 10 16.0934 0 0
10:35 am 10:35 Sunny 36 2.2 24 -4.4 62 62 ESE 9 15 29.91 1013 10 16.0934 0 0
10:55 am 10:55 Sunny 38 3.3 24 -4.7 56 56 ESE 9 15 29.9 1013 10 16.0934 0 0
11:15 am 11:15 Partly Cloudy 39 3.7 23 -4.8 54 54 S 5 7 29.91 1013 10 16.0934 0 0
11:35 am 11:35 Partly Cloudy 40 4.3 24 -4.4 54 54 ESE 3 6 29.89 1012 10 16.0934 0 0
11:55 am 11:55 Mostly Cloudy 41 5 24 -4.3 51 51 SE 3 6 29.89 1012 10 16.0934 0 0
12:15 pm 12:15 Cloudy 41 5.2 24 -4.2 51 51 SE 3 6 29.88 1012 10 16.0934 0 0
12:35 pm 12:35 Cloudy 43 5.9 25 -3.8 50 50 E 3 6 29.87 1011 10 16.0934 0 0
12:55 pm 12:55 Cloudy 43 6.3 26 -3.6 50 50 E 3 6 29.86 1011 10 16.0934 0 0
1:15 pm 13:15 Cloudy 45 7 26 -3.2 49 49 Calm 29.85 1011 10 16.0934 0 0
1:35 pm 13:35 Cloudy 45 7.4 26 -3.3 47 47 Calm 29.84 1010 10 16.0934 0 0
1:55 pm 13:55 Cloudy 46 7.9 27 -2.7 47 47 E 6 9 29.82 1010 10 16.0934 0 0
2:15 pm 14:15 Cloudy 47 8.3 27 -2.6 47 47 ESE 5 7 29.81 1009 10 16.0934 0 0
2:35 pm 14:35 Cloudy 47 8.6 28 -2.4 46 46 ESE 5 7 29.79 1009 10 16.0934 0 0
2:55 pm 14:55 Cloudy 47 8.6 28 -2.1 47 47 ESE 6 9 29.79 1009 10 16.0934 0 0
3:15 pm 15:15 Cloudy 48 8.8 28 -2.1 47 47 ESE 6 9 29.79 1009 10 16.0934 0 0
3:35 pm 15:35 Cloudy 48 9 28 -2 46 46 SE 3 6 29.79 1009 10 16.0934 0 0
3:55 pm 15:55 Cloudy 49 9.3 29 -1.4 47 47 S 6 9 29.79 1009 10 16.0934 0 0
4:15 pm 16:15 Cloudy 49 9.5 31 -0.7 49 49 SSE 7 11 29.79 1009 10 16.0934 0 0
4:35 pm 16:35 Cloudy 50 9.9 31 -0.6 48 48 SE 9 15 29.78 1009 10 16.0934 0 0
4:55 pm 16:55 Cloudy 49 9.4 31 -0.7 50 50 SE 9 15 29.79 1009 10 16.0934 0 0
5:15 pm 17:15 Cloudy 49 9.5 31 -0.6 50 50 ESE 10 17 29.79 1009 10 16.0934 0 0
5:35 pm 17:35 Cloudy 49 9.2 31 -0.5 51 51 SE 10 17 29.79 1009 10 16.0934 0 0
5:55 pm 17:55 Cloudy 47 8.3 30 -1.1 52 52 ESE 9 15 29.81 1009 10 16.0934 0 0
6:15 pm 18:15 Cloudy 46 8 29 -1.5 51 51 SE 9 15 29.82 1010 10 16.0934 0 0
6:35 pm 18:35 Cloudy 46 7.7 29 -1.5 53 53 NW 6 9 29.83 1010 10 16.0934 0 0
6:55 pm 18:55 Cloudy 47 8.1 29 -1.4 51 51 W 12 19 29.84 1010 10 16.0934 0 0
7:15 pm 19:15 Cloudy with Light Drizzle 44 6.9 34 1 66 66 WNW 17 28 29.86 1011 10 16.0934 0 0
7:35 pm 19:35 Cloudy 42 5.4 32 0.1 69 69 NW 13 20 29.87 1012 10 16.0934 0 0
7:55 pm 19:55 Cloudy 41 5.1 32 0 70 70 NW 21 33 29.88 1012 10 16.0934 0 0
8:15 pm 20:15 Cloudy 42 5.3 32 0 69 69 NW 13 20 29.88 1012 10 16.0934 0 0
8:35 pm 20:35 Cloudy 41 5.1 30 -1.1 65 65 NE 9 15 29.88 1012 10 16.0934 0 0
8:55 pm 20:55 Cloudy 41 4.8 24 -4.6 51 51 N 15 24 29.9 1013 10 16.0934 0 0
9:15 pm 21:15 Cloudy 39 4 31 -0.4 73 73 NNW 17 28 29.92 1013 10 16.0934 0 0
9:35 pm 21:35 Cloudy with Light Rain 38 3.1 32 0 80 80 NNW 15 24 29.96 1014 10 16.0934 0 0
9:55 pm 21:55 Cloudy with Light Rain 37 2.5 33 0.3 86 86 NNW 17 28 29.98 1015 10 16.0934 0 0
10:15 pm 22:15 Cloudy with Light Rain 36 2.2 32 -0.2 84 84 N 8 13 30 1016 7 11.26538 0 0
10:35 pm 22:35 Cloudy with Light Snow 34 1.2 32 0.2 93 93 N 10 17 29.98 1015 5 8.0467 0 0
10:55 pm 22:55 Cloudy with Light Snow 33 0.8 33 0.5 98 98 NNW 6 9 30 1016 4 6.43736 0 0
11:15 pm 23:15 Cloudy with Light Snow 33 0.6 33 0.5 99 99 NNW 7 11 30.01 1016 7 11.26538 0 0
11:35 pm 23:35 Cloudy with Light Snow 33 0.6 33 0.5 99 99 NW 7 11 30.01 1016 3 4.82802 0 0
11:55 pm 23:55 Cloudy with Light Snow 33 0.3 31 -0.5 94 94 E 12 19 30.01 1016 1.75 2.816345 0 0

Powered by AerisWeather